EW3517 Weather Reports


Display with metric or nautical units.
time (UTC)temp
F
wind
direction
speed
MPH
gust
MPH
rain 1hr
in
rain 24hr
in
rain mn
in
humidity
%
barometer
mb
20260903180048 93 137 0.0 1.0 0.00 0.00 0.00 51 1008.2
20260903174545 92 150 0.0 0.0 0.00 0.00 0.00 52 1008.4
20260903173041 92 126 0.0 0.0 0.00 0.00 0.00 53 1008.6
20260903171539 91 127 0.0 0.0 0.00 0.00 0.00 55 1008.7
20260903170037 91 185 0.0 0.0 0.00 0.00 0.00 55 1008.8
20260903164530 89 48 0.0 0.0 0.00 0.00 0.00 58 1008.8
20260903163027 89 99 0.0 0.0 0.00 0.00 0.00 58 1009.0
20260903161526 89 154 0.0 0.0 0.00 0.00 0.00 59 1009.1
20260903160022 87 166 0.0 0.0 0.00 0.00 0.00 63 1009.0
20260903154522 86 169 0.0 0.0 0.00 0.00 0.00 65 1009.3
20260903153016 85 136 0.0 0.0 0.00 0.00 0.00 65 1009.3
20260903151510 85 79 0.0 0.0 0.00 0.00 0.00 67 1009.4
20260903150007 84 146 0.0 0.0 0.00 0.00 0.00 69 1009.5
20260903144503 83 178 0.0 0.0 0.00 0.00 0.00 71 1009.8
20260903143110 82 169 0.0 0.0 0.00 0.00 0.00 71 1009.9
20260903141604 81 140 0.0 0.0 0.00 0.00 0.00 73 1010.0
20260903134508 80 159 0.0 0.0 0.00 0.00 0.00 73 1010.1
20260903133011 80 157 0.0 0.0 0.00 0.00 0.00 74 1010.2
20260903131504 79 157 0.0 0.0 0.00 0.00 0.00 75 1010.0
20260903130003 78 142 0.0 1.0 0.00 0.00 0.00 76 1009.8
20260903124501 77 130 0.0 0.0 0.00 0.00 0.00 77 1009.8
20260903123058 77 119 0.0 0.0 0.00 0.00 0.00 77 1009.6
20260903121556 77 138 0.0 0.0 0.00 0.00 0.00 76 1009.4
20260903114551 78 144 0.0 0.0 0.00 0.00 0.00 75 1009.2
20260903113051 78 149 0.0 0.0 0.00 0.00 0.00 75 1008.9
20260903111545 78 159 0.0 0.0 0.00 0.00 0.00 74 1008.8
20260903110048 79 82 0.0 0.0 0.00 0.00 0.00 73 1008.8
20260903104547 79 142 0.0 0.0 0.00 0.00 0.00 72 1008.7
20260903103047 79 125 0.0 0.0 0.00 0.00 0.00 71 1008.8
20260903101541 80 128 0.0 0.0 0.00 0.00 0.00 70 1008.6
20260903100039 80 146 0.0 0.0 0.00 0.00 0.00 70 1008.8
20260903094537 80 182 0.0 0.0 0.00 0.00 0.00 69 1008.7
20260903093034 81 126 0.0 0.0 0.00 0.00 0.00 68 1008.7
20260903091532 81 168 0.0 0.0 0.00 0.00 0.00 67 1008.6
20260903090031 82 163 0.0 0.0 0.00 0.00 0.00 67 1008.7
20260903084530 82 143 0.0 0.0 0.00 0.00 0.00 66 1008.7
20260903083036 82 171 0.0 0.0 0.00 0.00 0.00 65 1008.7
20260903081532 82 111 0.0 0.0 0.00 0.00 0.00 64 1008.8
20260903080025 83 126 0.0 0.0 0.00 0.00 0.00 64 1008.7
20260903074523 83 144 0.0 0.0 0.00 0.00 0.00 62 1008.6
20260903073021 84 115 0.0 0.0 0.00 0.00 0.00 61 1008.7
20260903071519 84 96 0.0 0.0 0.00 0.00 0.00 61 1008.7
20260903070017 85 140 0.0 0.0 0.00 0.00 0.00 60 1008.7
20260903064515 85 140 0.0 0.0 0.00 0.00 0.00 59 1008.7
20260903063019 86 290 0.0 0.0 0.00 0.00 0.00 57 1008.7
20260903061517 86 163 0.0 0.0 0.00 0.00 0.00 56 1008.7
20260903060008 86 123 0.0 0.0 0.00 0.00 0.00 55 1008.6
20260903054507 87 154 0.0 0.0 0.00 0.00 0.00 55 1008.5
20260903053004 87 162 0.0 1.0 0.00 0.00 0.00 54 1008.5
20260903051501 88 168 0.0 0.0 0.00 0.00 0.00 52 1008.5
20260903050123 88 313 0.0 0.0 0.00 0.00 0.00 50 1008.4
20260903044557 88 155 0.0 0.0 0.00 0.00 0.00 49 1008.4
20260903043056 89 186 0.0 0.0 0.00 0.00 0.00 48 1008.3
20260903041556 89 145 0.0 0.0 0.00 0.00 0.00 48 1008.4
20260903040100 90 149 0.0 0.0 0.00 0.00 0.00 47 1008.3
20260903034555 90 165 0.0 0.0 0.00 0.00 0.00 46 1008.4
20260903033054 90 133 0.0 0.0 0.00 0.00 0.00 45 1008.4
20260903031553 90 142 0.0 0.0 0.00 0.00 0.00 44 1008.3
20260903030053 91 140 0.0 1.0 0.00 0.00 0.00 44 1008.3
20260903024552 91 136 0.0 0.0 0.00 0.00 0.00 43 1008.2
20260903023051 92 148 0.0 0.0 0.00 0.00 0.00 42 1008.0
20260903021551 92 134 0.0 0.0 0.00 0.00 0.00 42 1007.8
20260903020052 93 134 0.0 0.0 0.00 0.00 0.00 42 1007.8
20260903014552 93 171 0.0 0.0 0.00 0.00 0.00 41 1007.5
20260903013050 94 121 0.0 0.0 0.00 0.00 0.00 40 1007.4
20260903011602 94 167 0.0 0.0 0.00 0.00 0.00 39 1007.1
20260903010048 95 161 0.0 0.0 0.00 0.00 0.00 38 1007.0
20260903004548 96 146 0.0 0.0 0.00 0.00 0.00 37 1006.9
20260903003047 97 154 0.0 0.0 0.00 0.00 0.00 36 1006.9
20260903001546 98 124 0.0 0.0 0.00 0.00 0.00 35 1006.8
20260903000046 99 152 0.0 0.0 0.00 0.00 0.00 35 1006.8
20260902234547 99 234 0.0 0.0 0.00 0.00 0.00 34 1006.8
20260902233050 99 166 0.0 0.0 0.00 0.00 0.00 34 1006.8
20260902231552 100 94 0.0 0.0 0.00 0.00 0.00 34 1006.8
20260902230039 99 314 0.0 0.0 0.00 0.00 0.00 34 1006.8
20260902224547 100 133 0.0 0.0 0.00 0.00 0.00 32 1007.0
20260902223036 101 173 0.0 0.0 0.00 0.00 0.00 33 1007.0
20260902221536 100 285 0.0 0.0 0.00 0.00 0.00 33 1007.2
20260902220031 100 127 0.0 0.0 0.00 0.00 0.00 34 1007.2
20260902214530 99 170 0.0 0.0 0.00 0.00 0.00 34 1007.3
20260902213026 99 153 0.0 0.0 0.00 0.00 0.00 34 1007.5
20260902211530 99 88 0.0 0.0 0.00 0.00 0.00 36 1007.6
20260902210022 99 161 0.0 0.0 0.00 0.00 0.00 36 1007.8
20260902204520 100 212 0.0 0.0 0.00 0.00 0.00 36 1008.0
20260902203018 100 98 0.0 0.0 0.00 0.00 0.00 35 1008.1
20260902201515 100 161 0.0 0.0 0.00 0.00 0.00 37 1008.4
20260902200013 100 307 0.0 0.0 0.00 0.00 0.00 37 1008.6
20260902194512 99 240 0.0 0.0 0.00 0.00 0.00 37 1008.8
20260902193009 99 178 0.0 0.0 0.00 0.00 0.00 38 1009.1
20260902191508 99 240 0.0 0.0 0.00 0.00 0.00 40 1009.3
20260902190004 99 48 0.0 0.0 0.00 0.00 0.00 38 1009.6
20260902184502 98 360 0.0 0.0 0.00 0.00 0.00 41 1009.8
20260902183058 98 149 0.0 0.0 0.00 0.00 0.00 40 1010.1
20260902181557 98 92 0.0 0.0 0.00 0.00 0.00 38 1010.4
20260902180127 98 116 0.0 0.0 0.00 0.00 0.00 40 1010.6